Hourly Data Report for October 18, 2013

All times are specified in Local Standard Time (LST). Add 1 hour to adjust for Daylight Saving Time where and when it is observed.

OTTAWA INTL A
ONTARIO

45°19'00.000" N
75°40'00.000" W
114.90 m
6106001
71628
YOW

Download Data

Hourly Data (October 2013)
Hourly Data Report for October 18, 2013
Temp Definition
°C
Dew Point Temp Definition
°C
Rel Hum Definition
%
Wind Dir Definition
10's deg

Wind Spd Definition
km/h
Visibility Definition
km
Stn Press Definition
kPa
Hmdx Definition


Wind Chill Definition


Weather Definition


TIME
00:00 Legend Double Dagger 11.0 10.6 97 28 6 12.9 99.11     Rain
01:00 Legend Double Dagger 11.0 10.2 95 27 9 16.1 99.13     Rain
02:00 Legend Double Dagger 10.6 10.2 97 33 6 16.1 99.09     Rain
03:00 Legend Double Dagger 10.0 9.7 98 20 3 12.9 99.08     LegendNANA
04:00 Legend Double Dagger 10.0 9.7 98 17 5 9.7 99.07     Rain,Fog
05:00 Legend Double Dagger 10.0 9.7 98 16 6 4.8 99.06     Fog
06:00 Legend Double Dagger 10.2 9.9 98 19 3 6.4 99.06     Fog
07:00 Legend Double Dagger 10.4 10.0 97 22 9 4.8 99.12     Rain,Drizzle,Fog
08:00 Legend Double Dagger 10.6 9.7 94 27 18 24.1 99.21     LegendNANA
09:00 Legend Double Dagger 11.4 8.8 84 27 24 24.1 99.28     LegendNANA
10:00 Legend Double Dagger 11.6 8.5 81 26 21 24.1 99.33     Mainly Clear
11:00 Legend Double Dagger 13.1 6.9 66 26 25 24.1 99.36     LegendNANA
12:00 Legend Double Dagger 13.0 6.9 66 24 22 24.1 99.35     LegendNANA
13:00 Legend Double Dagger 14.6 7.5 62 23 23 24.1 99.31     Mostly Cloudy
14:00 Legend Double Dagger 13.3 6.7 64 26 22 24.1 99.35     LegendNANA
15:00 Legend Double Dagger 13.4 6.8 64 23 23 24.1 99.38     LegendNANA
16:00 Legend Double Dagger 12.3 6.8 69 23 19 24.1 99.42     Mostly Cloudy
17:00 Legend Double Dagger 12.0 5.9 66 23 18 24.1 99.47     LegendNANA
18:00 Legend Double Dagger 10.7 4.9 67 24 27 24.1 99.53     LegendNANA
19:00 Legend Double Dagger 10.5 5.7 72 23 17 24.1 99.58     Mostly Cloudy
20:00 Legend Double Dagger 9.8 5.6 75 23 14 24.1 99.61     LegendNANA
21:00 Legend Double Dagger 9.6 5.0 73 24 20 24.1 99.67     LegendNANA
22:00 Legend Double Dagger 8.5 5.1 79 23 15 24.1 99.69     Mainly Clear
23:00 Legend Double Dagger 9.0 5.8 80 23 14 24.1 99.72     LegendNANA

Notes on Data Quality.

Legend

  • E = Estimated
  • M = Missing
  • NA = Not Available
  • ‡ = Partner data that is not subject to review by the National Climate Archives
Date modified: